Tracking 25953 objects as of 16-Aug-2022
HD Live streaming from Space Station
objects crossing your sky now

OBJECT W

Track OBJECT W now!
10-day predictions


NORAD ID: 51844
Int'l Code: 2022-019W
Perigee: 523.8 km
Apogee: 557.1 km
Inclination: 97.5 °
Period: 95.3 minutes
Semi major axis: 6911 km
RCS: Unknown
Launch date: February 27, 2022
Source: People's Republic of China (PRC)
Launch site: Wenchang Satellite Launch Center (WSC)
aabbcc
Your satellite tracking list
Your tracking list is empty




NASA's NSSDC Master Catalog

Two Line Element Set (TLE):
1 51844U 22019W   22228.49069106  .00003613  00000-0  21902-3 0  9997
2 51844  97.5079 302.0090 0024143  48.4355  77.2582 15.10950143 25601
Source of the keplerian elements: AFSPC